VK6YY Weather Reports


time (UTC)temp
C
wind
direction
speed
KPH
gust
KPH
rain 1hr
cm
rain 24hr
cm
rain mn
cm
humidity
%
barometer
mb
20260510044507 23 351 8.0 16.1 0.00 0.00 0.00 36 1021.9
20260510043002 23 13 9.7 19.3 0.00 0.00 0.00 36 1022.1
20260510041601 22 344 12.9 19.3 0.00 0.00 0.00 35 1022.4
20260510040109 22 5 8.0 17.7 0.00 0.00 0.00 36 1022.7
20260510034551 22 355 9.7 19.3 0.00 0.00 0.00 37 1023.0
20260510033052 22 27 6.4 19.3 0.00 0.00 0.00 38 1023.2
20260510031552 22 30 8.0 16.1 0.00 0.00 0.00 39 1023.3
20260510030039 21 31 9.7 20.9 0.00 0.00 0.00 41 1023.4
20260510024504 21 14 8.0 24.1 0.00 0.00 0.00 43 1023.5
20260510023100 20 17 12.9 20.9 0.00 0.00 0.00 43 1023.7
20260510021554 20 26 12.9 20.9 0.00 0.00 0.00 44 1023.8
20260510020050 20 34 11.3 20.9 0.00 0.00 0.00 46 1024.0
20260510014544 18 35 11.3 19.3 0.00 0.00 0.00 49 1024.2
20260510013039 18 5 9.7 19.3 0.00 0.00 0.00 51 1024.2
20260510011535 17 38 6.4 16.1 0.00 0.00 0.00 53 1024.2
20260510010027 16 17 6.4 20.9 0.00 0.00 0.00 55 1024.4
20260510004522 16 30 6.4 25.7 0.00 0.00 0.00 56 1024.3
20260510003018 15 355 6.4 16.1 0.00 0.00 0.00 58 1024.2
20260510001513 14 9 6.4 14.5 0.00 0.00 0.00 62 1024.1
20260510000039 13 32 8.0 17.7 0.00 0.00 0.00 63 1023.9
20260509234538 13 15 6.4 14.5 0.00 0.00 0.00 63 1024.0
20260509233032 13 116 6.4 16.1 0.00 0.00 0.00 64 1024.1
20260509231531 12 22 6.4 12.9 0.00 0.00 0.00 63 1024.0
20260509230026 13 15 6.4 12.9 0.00 0.00 0.00 63 1023.7
20260509224524 13 26 6.4 14.5 0.00 0.00 0.00 62 1023.6
20260509223025 13 34 4.8 12.9 0.00 0.00 0.00 62 1023.7
20260509221520 13 9 4.8 12.9 0.00 0.00 0.00 61 1023.7
20260509220015 13 15 6.4 11.3 0.00 0.00 0.00 60 1023.5
20260509214512 13 32 4.8 14.5 0.00 0.00 0.00 60 1023.4
20260509213041 13 17 3.2 11.3 0.00 0.00 0.00 59 1023.4
20260509211538 13 22 1.6 14.5 0.00 0.00 0.00 58 1023.2
20260509210034 13 35 4.8 11.3 0.00 0.00 0.00 58 1023.1
20260509204531 13 35 4.8 11.3 0.00 0.00 0.00 58 1023.0
20260509203029 13 105 6.4 12.9 0.00 0.00 0.00 58 1022.9
20260509201526 13 14 4.8 12.9 0.00 0.00 0.00 58 1022.8
20260509194552 13 19 3.2 9.7 0.00 0.00 0.00 58 1022.7
20260509193048 13 46 3.2 12.9 0.00 0.00 0.00 58 1022.5
20260509191547 13 31 0.0 8.0 0.00 0.00 0.00 58 1022.7
20260509190058 13 38 1.6 8.0 0.00 0.00 0.00 57 1022.6
20260509184547 13 79 0.0 8.0 0.00 0.00 0.00 57 1022.6
20260509183041 13 42 0.0 6.4 0.00 0.00 0.00 57 1022.6
20260509181542 13 89 0.0 8.0 0.00 0.00 0.00 56 1022.6
20260509180039 13 63 0.0 8.0 0.00 0.00 0.00 55 1022.6
20260509174539 13 88 0.0 6.4 0.00 0.00 0.00 55 1022.7
20260509173035 13 103 1.6 8.0 0.00 0.00 0.00 54 1022.7
20260509171539 13 38 1.6 8.0 0.00 0.00 0.00 53 1022.7
20260509170035 13 69 0.0 8.0 0.00 0.00 0.00 53 1022.7
20260509164634 14 63 1.6 6.4 0.00 0.00 0.00 52 1022.8
20260509163034 14 34 0.0 8.0 0.00 0.00 0.00 52 1022.8
20260509161534 14 47 0.0 6.4 0.00 0.00 0.00 51 1022.9
20260509160030 14 94 1.6 8.0 0.00 0.00 0.00 51 1022.9
20260509154530 14 60 0.0 6.4 0.00 0.00 0.00 50 1023.0
20260509153026 14 51 0.0 6.4 0.00 0.00 0.00 50 1023.2
20260509151527 15 91 0.0 6.4 0.00 0.00 0.00 49 1023.2
20260509150034 15 20 0.0 4.8 0.00 0.00 0.00 49 1023.4
20260509144532 15 74 0.0 3.2 0.00 0.00 0.00 48 1023.5
20260509143022 15 62 0.0 3.2 0.00 0.00 0.00 48 1023.6
20260509141523 15 55 0.0 3.2 0.00 0.00 0.00 47 1023.6
20260509140021 16 54 0.0 6.4 0.00 0.00 0.00 46 1023.5
20260509134520 16 88 0.0 6.4 0.00 0.00 0.00 45 1023.3
20260509133016 16 51 0.0 6.4 0.00 0.00 0.00 45 1023.4
20260509131524 16 46 0.0 8.0 0.00 0.00 0.00 44 1023.4
20260509130017 17 46 0.0 6.4 0.00 0.00 0.00 43 1023.2
20260509124520 17 134 1.6 4.8 0.00 0.00 0.00 43 1023.1
20260509123012 17 64 1.6 8.0 0.00 0.00 0.00 42 1023.0
20260509121519 17 101 1.6 8.0 0.00 0.00 0.00 41 1023.0
20260509120011 18 63 0.0 6.4 0.00 0.00 0.00 41 1022.9
20260509114521 18 50 1.6 8.0 0.00 0.00 0.00 40 1022.7
20260509113008 18 80 1.6 8.0 0.00 0.00 0.00 40 1022.6
20260509111538 18 98 1.6 4.8 0.00 0.00 0.00 41 1022.7
20260509110037 18 81 1.6 6.4 0.00 0.00 0.00 41 1022.6
20260509104535 18 124 1.6 8.0 0.00 0.00 0.00 40 1022.6
20260509103034 19 98 1.6 4.8 0.00 0.00 0.00 40 1022.6
20260509101546 19 92 0.0 3.2 0.00 0.00 0.00 38 1022.5
20260509100032 20 91 0.0 6.4 0.00 0.00 0.00 37 1022.4
20260509094532 20 67 0.0 6.4 0.00 0.00 0.00 37 1022.4
20260509093032 21 67 0.0 6.4 0.00 0.00 0.00 36 1022.3
20260509091527 22 106 0.0 3.2 0.00 0.00 0.00 35 1022.2
20260509090028 22 80 0.0 8.0 0.00 0.00 0.00 34 1022.2
20260509084523 22 89 1.6 6.4 0.00 0.00 0.00 33 1022.2
20260509083022 23 82 0.0 6.4 0.00 0.00 0.00 32 1022.1
20260509081521 23 57 1.6 8.0 0.00 0.00 0.00 31 1022.2
20260509080021 24 10 6.4 12.9 0.00 0.00 0.00 29 1022.1
20260509074515 23 341 3.2 11.3 0.00 0.00 0.00 31 1022.1
20260509073012 23 138 1.6 9.7 0.00 0.00 0.00 32 1022.0
20260509071510 23 78 3.2 11.3 0.00 0.00 0.00 33 1021.8
20260509070010 23 78 3.2 11.3 0.00 0.00 0.00 33 1021.7
20260509064550 23 49 3.2 17.7 0.00 0.00 0.00 33 1021.7
20260509063042 23 204 1.6 12.9 0.00 0.00 0.00 33 1021.7
20260509061532 23 69 1.6 11.3 0.00 0.00 0.00 34 1021.6
20260509060031 23 113 3.2 14.5 0.00 0.00 0.00 35 1021.7
20260509054529 23 30 4.8 9.7 0.00 0.00 0.00 36 1021.8
20260509053027 23 13 4.8 14.5 0.00 0.00 0.00 37 1022.0
20260509051526 23 22 4.8 17.7 0.00 0.00 0.00 36 1022.2
20260509050023 23 80 8.0 16.1 0.00 0.00 0.00 36 1022.3